Tacoma, WA

4:52 PM PST on February 24, 2018 (GMT -0800)
McChord Air Force Base

Weather History for KTCM - June, 2012

Change the Weather History Date:

Sunday, June 10, 2012

  Actual Average Record
Temperature  
Mean Temperature 57 °F -  
Max Temperature 67 °F 66 °F 82 °F (1982)
Min Temperature 48 °F 47 °F 39 °F (1961)
Degree Days  
Heating Degree Days 8    
Growing Degree Days 7 (Base 50)    
Moisture  
Dew Point 44 °F    
Average Humidity 71    
Maximum Humidity 87    
Minimum Humidity 41    
Precipitation  
Precipitation 0.00 in - - ()
Sea Level Pressure  
Sea Level Pressure 30.27 in    
Wind  
Wind Speed 7 mph (South)    
Max Wind Speed 10 mph    
Max Gust Speed -    
Visibility 10 miles    
Events      
Averages and records for this station are not official NWS values.
T = Trace of Precipitation, MM = Missing Value Source: NWS Daily Summary

Daily Weather History Graph

Daily Weather History Graph

Search for Another Location

Airport or City:

Trip Planner

Search our weather history database for the weather conditions in past years. The results will help you decide how hot, cold, wet, or windy it might be!

Date:

Astronomy

Jun. 10, 2012 Rise Set
Actual Time 5:14 AM PDT 9:05 PM PDT
Civil Twilight 4:34 AM PDT 9:44 PM PDT
Nautical Twilight 3:40 AM PDT 10:39 PM PDT
Astronomical Twilight 2:20 AM PDT 11:59 PM PDT
Moon 12:38 AM PDT (6/10) 12:32 PM PDT (6/10)
Length of Visible Light 17h 10m
Length of Day
15h 50m
Waning Gibbous, 57% of the Moon is Illuminated
Jun 10
Waning Gibbous
Jun 11
Last Quarter
Jun 19
New
Jun 26
First Quarter
Jul 3
Full

Hourly Weather History & Observations

Time (PDT) Temp. Dew Point Humidity Pressure Visibility Wind Dir Wind Speed Gust Speed Precip Events Conditions
12:58 AM 48.9 °F 43.3 °F 81% 30.27 in 10.0 mi South 10.4 mph - N/A   Scattered Clouds
1:03 AM 48.2 °F 42.8 °F 82% 30.26 in 10.0 mi South 9.2 mph - N/A   Mostly Cloudy
1:08 AM 48.2 °F 42.8 °F 82% 30.26 in 10.0 mi South 8.1 mph - N/A   Scattered Clouds
1:38 AM 48.2 °F 42.8 °F 82% 30.26 in 10.0 mi South 8.1 mph - N/A   Mostly Cloudy
1:58 AM 48.0 °F 43.7 °F 85% 30.27 in 10.0 mi South 8.1 mph - N/A   Overcast
2:58 AM 48.7 °F 43.9 °F 83% 30.29 in 10.0 mi South 8.1 mph - N/A   Overcast
3:58 AM 49.5 °F 43.7 °F 81% 30.28 in 10.0 mi South 9.2 mph - N/A   Overcast
4:33 AM 50.0 °F 44.6 °F 82% 30.27 in 10.0 mi South 8.1 mph - N/A   Overcast
4:38 AM 50.0 °F 44.6 °F 82% 30.27 in 10.0 mi South 8.1 mph - N/A   Overcast
4:43 AM 50.0 °F 44.6 °F 82% 30.27 in 10.0 mi South 8.1 mph - N/A   Overcast
4:48 AM 48.2 °F 44.6 °F 87% 30.27 in 10.0 mi South 8.1 mph - N/A   Overcast
4:58 AM 48.9 °F 43.9 °F 83% 30.29 in 10.0 mi South 8.1 mph - N/A   Overcast
5:58 AM 48.9 °F 43.7 °F 82% 30.27 in 10.0 mi South 6.9 mph - N/A   Overcast
6:58 AM 50.0 °F 44.6 °F 82% 30.29 in 10.0 mi South 8.1 mph - N/A   Overcast
7:58 AM 51.6 °F 44.2 °F 76% 30.30 in 10.0 mi SSW 5.8 mph - N/A   Overcast
8:58 AM 53.4 °F 43.5 °F 69% 30.30 in 10.0 mi South 4.6 mph - N/A   Overcast
9:58 AM 54.5 °F 44.1 °F 68% 30.30 in 10.0 mi South 3.5 mph - N/A   Overcast
10:58 AM 55.9 °F 44.4 °F 65% 30.30 in 10.0 mi Variable 3.5 mph - N/A   Overcast
11:58 AM 56.8 °F 45.0 °F 64% 30.30 in 10.0 mi Variable 2.3 mph - N/A   Overcast
12:58 PM 57.2 °F 46.0 °F 66% 30.30 in 10.0 mi Variable 5.8 mph - N/A   Overcast
1:13 PM 59.0 °F 46.4 °F 63% 30.28 in 10.0 mi Variable 4.6 mph - N/A   Overcast
1:58 PM 60.6 °F 46.2 °F 59% 30.30 in 10.0 mi Variable 2.3 mph - N/A   Clear
2:58 PM 62.4 °F 46.8 °F 57% 30.29 in 10.0 mi Variable 1.2 mph - N/A   Clear
3:58 PM 64.0 °F 45.9 °F 52% 30.28 in 10.0 mi NNW 5.8 mph - N/A   Clear
4:58 PM 65.5 °F 43.7 °F 45% 30.27 in 10.0 mi Variable 1.2 mph - N/A   Clear
5:58 PM 66.6 °F 42.3 °F 41% 30.25 in 9.0 mi NE 2.3 mph - N/A   Clear
6:58 PM 63.9 °F 41.7 °F 44% 30.25 in 9.0 mi NE 6.9 mph - N/A   Clear
7:58 PM 60.6 °F 43.0 °F 52% 30.25 in 10.0 mi NE 5.8 mph - N/A   Clear
8:58 PM 59.9 °F 42.1 °F 52% 30.23 in 10.0 mi NE 4.6 mph - N/A   Clear
9:58 PM 52.2 °F 44.4 °F 75% 30.24 in 10.0 mi Calm Calm - N/A   Clear
10:58 PM 50.7 °F 44.8 °F 80% 30.24 in 10.0 mi Calm Calm - N/A   Clear
11:58 PM 48.6 °F 44.2 °F 85% 30.24 in 10.0 mi South 2.3 mph - N/A   Scattered Clouds